Waarnemingen

Advertentie
Mijn weer
Harstena, Zweden (2563): temperatuur & dauwpunt: 16.06.2018 09:00:00 - 22.06.2018 09:00:00 (CEST)Harstena, Zweden (2563): windsnelheid & windstoten: 16.06.2018 09:00:00 - 22.06.2018 09:00:00 (CEST)Harstena, Zweden (2563): windrichting: 16.06.2018 09:00:00 - 22.06.2018 09:00:00 (CEST)Harstena, Zweden (2563): luchtdruk: 16.06.2018 09:00:00 - 22.06.2018 09:00:00 (CEST)Harstena, Zweden (2563): zicht: 16.06.2018 09:00:00 - 22.06.2018 09:00:00 (CEST)Harstena, Zweden (2563): neerslag: 16.06.2018 09:00:00 - 22.06.2018 09:00:00 (CEST)
Datum & Tijd tt [°C] td [°C] ff [km/u] ff [kn] fx [km/u] fx [kn] dd ppp [hPa] vv [km] rr [mm]
22.06.2018 09:00:00 10,2 6,7 25 14 49 27 NW 1000,4 50 0,2
22.06.2018 08:00:00 9,8 7,2 27 14 51 28 WNW 999,4 35 0,0
22.06.2018 07:00:00 10,1 7,2 27 15 51 28 WNW 998,7 50 0,0
22.06.2018 06:00:00 10,1 7,7 24 13 51 27 WNW 998,0 50 0,0
22.06.2018 05:00:00 9,7 8,5 21 11 43 23 W 997,7 50 0,2
22.06.2018 04:00:00 9,6 7,7 19 10 39 21 W 997,2 38 0,0
22.06.2018 03:00:00 8,7 7,2 18 10 42 23 W 997,3 42 0,0
22.06.2018 02:00:00 8,7 7,3 23 12 42 23 WNW 997,4 50 0,0
22.06.2018 01:00:00 9,1 7,7 21 11 40 22 WNW 997,6 50 0,0
22.06.2018 00:00:00 9,1 7,7 19 10 40 22 WNW 997,7 17 0,0
21.06.2018 23:00:00 9,6 8,7 19 11 45 24 W 997,7 14 0,3
21.06.2018 22:00:00 10,4 8,2 20 11 45 24 W 997,7 33 0,0
21.06.2018 21:00:00 11,3 8,7 20 11 42 23 W 997,3 50 0,0
21.06.2018 20:00:00 12,2 8,9 18 10 42 23 W 997,3 50 0,0
21.06.2018 19:00:00 12,0 10,1 11 6 29 16 W 997,2 14 1,3
21.06.2018 18:00:00 12,9 10,1 19 11 29 16 ZZW 997,6 50 0,0
21.06.2018 17:00:00 13,1 10,1 13 7 35 19 WZW 998,1 7 0,8
21.06.2018 16:00:00 14,0 11,9 9 5 35 19 ZW 998,2 50 0,6
21.06.2018 15:00:00 16,6 9,0 8 4 32 18 WZW 998,9 50 0,0
21.06.2018 14:00:00 16,1 9,5 15 8 30 16 ZZW 999,1 50 0,0
21.06.2018 13:00:00 16,6 9,3 15 8 36 19 ZW 999,5 50 0,0
21.06.2018 12:00:00 16,6 10,0 14 8 37 20 ZW 999,3 50 0,0
21.06.2018 11:00:00 17,1 10,0 16 9 37 20 ZW 1000,4 50 0,0
21.06.2018 10:00:00 15,9 9,8 17 9 36 20 ZW 1000,3 50 0,0
21.06.2018 09:00:00 16,5 11,2 20 11 34 18 ZW 1000,8 46 0,0
21.06.2018 08:00:00 15,5 12,6 14 7 25 14 ZW 1001,5 50 0,0
21.06.2018 07:00:00 15,2 13,0 12 6 30 16 ZW 1002,2 50 0,0
21.06.2018 06:00:00 14,8 13,0 18 10 30 16 ZW 1002,4 50 0,0
21.06.2018 05:00:00 14,9 13,4 16 9 29 15 ZW 1002,9 50 0,0
21.06.2018 04:00:00 13,2 12,7 15 8 29 15 ZZW 1003,6 32 0,0
21.06.2018 03:00:00 13,4 12,9 16 9 21 11 ZZW 1004,6 44 0,2
21.06.2018 02:00:00 12,4 11,5 8 4 19 11 Z 1005,5 29 0,0
21.06.2018 01:00:00 11,3 10,5 4 2 11 6 ZZO 1006,3 17 0,0
21.06.2018 00:00:00 11,5 10,7 5 3 10 5 Z 1007,3 16 0,0
20.06.2018 23:00:00 11,5 10,7 0 0 18 10 N 1007,9 27 0,0
20.06.2018 22:00:00 11,5 10,6 6 3 22 12 NNW 1008,0 25 0,0
20.06.2018 21:00:00 11,9 10,8 11 6 49 26 N 1007,6 26 0,0
20.06.2018 20:00:00 12,8 11,2 16 9 49 26 NNW 1007,7 23 0,4
20.06.2018 19:00:00 12,8 11,0 11 6 15 8 ZO 1007,6 10 0,0
20.06.2018 18:00:00 15,0 9,4 2 1 21 12 ZO 1009,3 40 0,0
20.06.2018 17:00:00 15,1 9,2 6 4 34 19 WZW 1010,8 25 0,0
20.06.2018 16:00:00 15,8 7,6 15 8 37 20 WZW 1011,5 50 0,0
20.06.2018 15:00:00 17,5 4,4 19 10 37 20 ZW 1011,9 50 0,0
20.06.2018 14:00:00 19,2 2,1 15 8 31 17 WZW 1012,0 47 0,0
20.06.2018 13:00:00 18,9 3,1 14 8 32 18 W 1012,8 45 0,0
20.06.2018 12:00:00 17,8 3,3 18 10 32 18 W 1013,3 40 0,0
20.06.2018 11:00:00 17,4 4,7 15 8 39 21 WZW 1013,2 43 0,0
20.06.2018 10:00:00 15,5 5,4 21 12 43 23 W 1013,3 34 0,0
20.06.2018 09:00:00 14,2 6,5 21 11 43 23 W 1013,3 31 0,0
20.06.2018 08:00:00 13,1 6,9 22 12 43 23 W 1013,2 27 0,0
20.06.2018 07:00:00 12,5 7,0 18 10 43 23 W 1013,2 27 0,0
20.06.2018 06:00:00 12,3 6,8 19 10 49 27 W 1012,9 26 0,0
20.06.2018 05:00:00 12,1 6,4 23 13 49 27 W 1012,7 28 0,0
20.06.2018 04:00:00 11,8 6,1 19 10 48 26 W 1012,4 32 0,0
20.06.2018 03:00:00 12,4 5,8 21 11 46 25 W 1012,2 39 0,0
20.06.2018 02:00:00 12,8 5,5 26 14 52 28 W 1012,0 40 0,0
20.06.2018 01:00:00 13,2 5,6 25 13 52 28 WZW 1011,8 38 0,0
20.06.2018 00:00:00 13,8 4,9 24 13 48 26 W 1011,6 47 0,0
19.06.2018 23:00:00 14,5 4,2 21 11 48 26 W 1011,6 48 0,0
19.06.2018 22:00:00 15,7 3,8 23 12 51 28 W 1010,9 47 0,0
19.06.2018 21:00:00 16,9 3,6 15 8 51 28 W 1010,2 50 0,0
19.06.2018 20:00:00 18,0 2,7 20 11 51 28 W 1009,6 49 0,0
19.06.2018 19:00:00 19,3 1,7 26 14 54 29 W 1009,2 50 0,0
19.06.2018 18:00:00 19,7 0,4 29 16 54 29 W 1008,5 50 0,0
19.06.2018 17:00:00 20,0 1,4 27 15 58 31 W 1008,3 45 0,0
19.06.2018 16:00:00 20,7 0,5 27 15 61 33 W 1008,0 50 0,0
19.06.2018 15:00:00 20,7 3,0 27 15 61 33 W 1007,8 36 0,0
19.06.2018 14:00:00 19,5 2,4 31 17 56 30 W 1007,4 42 0,0
19.06.2018 13:00:00 18,2 8,5 24 13 67 36 W 1007,5 39 0,3
19.06.2018 12:00:00 13,5 8,8 36 19 67 36 W 1007,9 18 0,0
19.06.2018 11:00:00 17,7 6,5 31 17 62 33 WZW 1007,1 43 0,0
19.06.2018 10:00:00 17,0 5,9 34 18 53 29 WZW 1007,1 29 0,0
19.06.2018 09:00:00 16,1 6,5 28 15 53 29 WZW 1007,2 38 0,0
19.06.2018 08:00:00 15,4 6,4 26 14 50 27 WZW 1007,2 46 0,0
19.06.2018 07:00:00 16,0 9,7 23 12 45 24 WZW 1007,3 50 0,0
19.06.2018 06:00:00 16,2 10,9 18 10 37 20 WZW 1007,2 50 0,0
19.06.2018 05:00:00 15,7 11,9 23 13 42 23 ZW 1007,3 50 0,0
19.06.2018 04:00:00 15,7 12,2 23 12 42 23 ZW 1008,2 50 0,0
19.06.2018 03:00:00 16,4 11,7 21 11 40 22 ZW 1008,7 50 0,0
19.06.2018 02:00:00 15,8 12,0 19 10 29 16 ZZW 1009,5 49 0,0
19.06.2018 01:00:00 16,0 10,8 16 8 27 15 ZZW 1009,9 50 0,0
19.06.2018 00:00:00 16,3 9,9 17 9 27 15 ZW 1010,7 50 0,0
18.06.2018 23:00:00 16,6 9,5 16 9 28 15 ZW 1011,4 50 0,0
18.06.2018 22:00:00 17,7 8,5 10 6 32 18 ZW 1011,8 50 0,0
18.06.2018 21:00:00 18,7 8,6 11 6 32 18 WZW 1011,4 50 0,0
18.06.2018 20:00:00 20,2 6,9 11 6 34 19 WZW 1011,4 50 0,0
18.06.2018 19:00:00 20,6 6,2 15 8 34 19 WZW 1011,9 50 0,0
18.06.2018 18:00:00 20,1 5,7 14 7 29 16 W 1011,8 50 0,0
18.06.2018 17:00:00 20,1 6,4 13 7 27 14 WZW 1012,5 50 0,0
18.06.2018 16:00:00 20,6 7,6 16 8 34 18 WZW 1013,0 50 0,0
18.06.2018 15:00:00 20,4 7,7 13 7 34 19 ZW 1013,3 43 0,0
18.06.2018 14:00:00 18,1 7,5 18 10 35 19 WZW 1013,5 50 0,0
18.06.2018 13:00:00 17,8 6,6 21 11 35 19 W 1013,5 50 0,0
18.06.2018 12:00:00 18,0 7,4 13 7 30 16 ZW 1013,4 50 0,0
18.06.2018 11:00:00 17,4 7,2 14 8 33 18 WZW 1013,5 46 0,0
18.06.2018 10:00:00 17,2 7,8 14 7 35 19 WZW 1013,4 44 0,0
18.06.2018 09:00:00 15,8 7,8 16 8 35 19 WZW 1013,3 49 0,0
18.06.2018 08:00:00 15,3 9,0 16 9 29 16 ZW 1013,5 42 0,0
18.06.2018 07:00:00 14,6 9,2 13 7 30 16 WZW 1013,4 48 0,0
18.06.2018 06:00:00 13,9 8,9 16 9 30 16 WZW 1013,2 49 0,0
18.06.2018 05:00:00 13,4 9,3 14 8 27 15 ZW 1013,0 50 0,0
18.06.2018 04:00:00 12,9 9,0 7 4 23 12 WZW 1013,2 50 0,0
18.06.2018 03:00:00 13,5 8,6 10 6 29 15 WZW 1013,1 50 0,0
18.06.2018 02:00:00 13,9 8,3 11 6 29 15 W 1013,0 50 0,0
18.06.2018 01:00:00 14,2 9,4 10 5 31 17 W 1012,5 50 0,0
18.06.2018 00:00:00 14,9 11,1 15 8 31 17 WZW 1012,1 50 0,0
17.06.2018 23:00:00 15,4 11,6 13 7 30 16 WZW 1011,6 49 0,0
17.06.2018 22:00:00 15,9 14,6 16 9 22 12 ZW 1011,3 27 0,0
17.06.2018 21:00:00 15,5 14,4 10 5 21 11 ZZW 1010,9 19 0,0
17.06.2018 20:00:00 15,7 14,6 13 7 32 17 Z 1010,5 16 0,0
17.06.2018 19:00:00 15,2 14,6 9 5 36 19 ZZW 1010,4 12 3,4
17.06.2018 18:00:00 16,9 15,4 16 9 36 19 Z 1010,5 15 0,0
17.06.2018 17:00:00 17,6 15,8 14 8 31 17 ZZO 1010,8 20 0,4
17.06.2018 16:00:00 15,0 13,2 15 8 26 14 ZO 1011,4 12 2,5
17.06.2018 15:00:00 17,2 14,8 10 6 26 14 Z 1013,2 17 0,0
17.06.2018 14:00:00 18,1 12,5 12 6 19 10 ZO 1012,6 47 0,0
17.06.2018 13:00:00 17,5 13,4 10 5 21 11 ZO 1013,2 38 0,2
17.06.2018 12:00:00 16,6 14,4 10 6 21 11 Z 1014,1 25 0,0
17.06.2018 11:00:00 16,9 13,8 11 6 21 12 ZO 1014,2 45 0,0
17.06.2018 10:00:00 19,6 14,2 13 7 21 12 ZO 1014,5 50 0,0
17.06.2018 09:00:00 17,0 14,3 10 6 16 9 ZO 1014,8 43 0,0
17.06.2018 08:00:00 19,0 13,2 10 5 16 8 ZZO 1014,8 45 0,0
17.06.2018 07:00:00 18,6 15,1 8 4 16 9 ZZO 1015,3 28 0,0
17.06.2018 06:00:00 17,3 14,8 7 4 16 9 ZZO 1015,4 21 0,0
17.06.2018 05:00:00 15,7 13,9 11 6 16 9 ZO 1015,6 32 0,0
17.06.2018 04:00:00 15,5 13,0 11 6 17 9 OZO 1015,5 27 0,0
17.06.2018 03:00:00 15,0 11,6 9 5 17 9 ZO 1015,9 18 0,0
17.06.2018 02:00:00 15,1 12,2 11 6 16 9 ZZO 1016,3 50 0,0
17.06.2018 01:00:00 15,3 13,0 9 5 13 7 ZO 1016,3 50 0,0
17.06.2018 00:00:00 15,1 11,9 6 3 9 5 ZZW 1016,6 50 0,0
16.06.2018 23:00:00 14,7 12,0 5 3 11 6 ZZO 1016,5 50 0,0
16.06.2018 22:00:00 15,5 11,9 6 3 11 6 ZZW 1016,7 50 0,0
16.06.2018 21:00:00 15,7 11,1 7 4 13 7 Z 1016,6 50 0,0
16.06.2018 20:00:00 16,6 11,3 8 4 17 9 Z 1016,9 50 0,0
16.06.2018 19:00:00 17,2 11,0 7 4 17 9 Z 1016,9 50 0,0
16.06.2018 18:00:00 18,4 10,2 10 5 17 9 ZZO 1016,9 50 0,0
16.06.2018 17:00:00 19,5 9,9 8 5 23 12 ZZO 1017,2 46 0,0
16.06.2018 16:00:00 19,8 9,7 10 6 23 12 ZZO 1017,2 50 0,0
16.06.2018 15:00:00 20,2 9,1 11 6 18 10 ZZO 1017,3 45 0,0
16.06.2018 14:00:00 21,2 8,8 10 5 19 10 ZO 1017,5 41 0,0
16.06.2018 13:00:00 19,6 8,9 13 7 19 11 ZO 1017,7 50 0,0
16.06.2018 12:00:00 18,9 8,8 12 7 19 11 OZO 1017,8 40 0,0
16.06.2018 11:00:00 19,2 7,0 11 6 18 10 O 1017,6 26 0,0
16.06.2018 10:00:00 19,6 6,0 6 3 19 11 N 1017,6 49 0,0
16.06.2018 09:00:00 18,5 6,3 10 5 19 11 N 1017,4 40 0,0

tt = temperatuur
td = dauwpunt
ff = windsnelheid
fx = windstoten
dd = windrichting
ppp = luchtdruk
vv = zicht
rr = neerslag

Weerstations in de omgeving